Find Kosmos-1878

NORAD ID: 18337 Int'l Des: 1987-074 Owner: UNKS Country: SU operational
LEOCIRCULARPOLAR

Live Position

Loading 3D Globe...

About Kosmos-1878

Description loading...

Upcoming Passes

Passes for default location (London). Set your location on the main map for personalized predictions.

Altitude History

Loading altitude history...

Two-Line Element Set

1 18337U 87074D 26104.87176770 .00000037 00000-0 14252-3 0 9991
2 18337 82.5715 333.3017 0003618 27.4884 343.8486 12.64384246781296
Epoch: Apr 14, 2026 • Age: 10 hours

Current Status

Altitude 1417.2 km
Velocity 7.16 km/s
Sub-Earth Point 82.58°N, 112.11°E
Launch Date Sep 7, 1987
Age 38.6 years
Type other

Technical Details

Classification Payload
Mass 225.00 kg
Dry Mass 225.00 kg
Total Mass 225.00 kg
Length 1.60 m
Diameter 0.80 m
Span 7.00 m
Shape Cyl + Ant
Manufacturer NPOPM
Bus Type Strela-3
Phase Status In Orbit
Owner/State UNKS/SU

Most Searched